TimeCDT,TemperatureF,Dew PointF,Humidity,Sea Level PressureIn,VisibilityMPH,Wind Direction,Wind SpeedMPH,Gust SpeedMPH,PrecipitationIn,Events,Conditions,WindDirDegrees,DateUTC
12:53 AM,55.0,54.0,96,29.90,10.0,Calm,Calm,-,N/A,,Clear,0,2013-03-31 05:53:00
1:51 AM,50.0,50.0,100,29.91,1.8,Calm,Calm,-,0.01,,Partly Cloudy,0,2013-03-31 06:51:00
1:53 AM,51.1,51.1,100,29.90,1.5,Calm,Calm,-,0.01,,Partly Cloudy,0,2013-03-31 06:53:00
2:03 AM,51.8,51.8,100,29.91,0.8,Calm,Calm,-,N/A,,Mostly Cloudy,0,2013-03-31 07:03:00
2:09 AM,51.8,51.8,100,29.91,2.0,Calm,Calm,-,N/A,,Mostly Cloudy,0,2013-03-31 07:09:00
2:17 AM,51.8,51.8,100,29.91,6.0,Calm,Calm,-,N/A,,Mostly Cloudy,0,2013-03-31 07:17:00
2:28 AM,51.8,51.8,100,29.91,4.0,Calm,Calm,-,N/A,,Scattered Clouds,0,2013-03-31 07:28:00
2:34 AM,51.8,51.8,100,29.91,1.8,Calm,Calm,-,N/A,,Partly Cloudy,0,2013-03-31 07:34:00
2:39 AM,50.0,50.0,100,29.91,0.5,Calm,Calm,-,N/A,Fog,Fog,0,2013-03-31 07:39:00
2:53 AM,48.9,48.9,100,29.90,0.2,Calm,Calm,-,N/A,Fog,Fog,0,2013-03-31 07:53:00
3:41 AM,50.0,50.0,100,29.90,0.2,Calm,Calm,-,N/A,Fog,Fog,0,2013-03-31 08:41:00
3:51 AM,50.0,50.0,100,29.89,0.8,Calm,Calm,-,N/A,,Overcast,0,2013-03-31 08:51:00
3:53 AM,50.0,50.0,100,29.87,1.2,Calm,Calm,-,N/A,,Overcast,0,2013-03-31 08:53:00
3:56 AM,50.0,50.0,100,29.88,3.0,Calm,Calm,-,N/A,,Overcast,0,2013-03-31 08:56:00
4:02 AM,50.0,50.0,100,29.88,1.8,Calm,Calm,-,N/A,,Overcast,0,2013-03-31 09:02:00
4:21 AM,50.0,50.0,100,29.87,0.5,Calm,Calm,-,N/A,Fog,Fog,0,2013-03-31 09:21:00
4:53 AM,48.9,48.9,100,29.86,0.2,Calm,Calm,-,N/A,Fog,Fog,0,2013-03-31 09:53:00
5:24 AM,50.0,50.0,100,29.90,0.5,Calm,Calm,-,N/A,Fog,Fog,0,2013-03-31 10:24:00
5:37 AM,50.0,50.0,100,29.90,2.5,Calm,Calm,-,N/A,,Overcast,0,2013-03-31 10:37:00
5:44 AM,50.0,50.0,100,29.90,7.0,Calm,Calm,-,N/A,,Overcast,0,2013-03-31 10:44:00
5:53 AM,51.1,51.1,100,29.88,5.0,Calm,Calm,-,N/A,,Overcast,0,2013-03-31 10:53:00
6:53 AM,52.0,52.0,100,29.93,7.0,North,17.3,34.5,0.01,Rain,Light Rain,350,2013-03-31 11:53:00
7:18 AM,53.6,50.0,88,29.95,10.0,North,9.2,-,N/A,,Mostly Cloudy,10,2013-03-31 12:18:00
7:53 AM,52.0,50.0,93,29.97,10.0,NNW,4.6,-,N/A,,Scattered Clouds,340,2013-03-31 12:53:00
8:53 AM,52.0,50.0,93,29.96,10.0,Variable,3.5,-,N/A,,Partly Cloudy,0,2013-03-31 13:53:00
9:53 AM,54.0,48.9,83,29.96,10.0,NE,5.8,-,N/A,,Scattered Clouds,50,2013-03-31 14:53:00
10:53 AM,55.9,50.0,80,29.96,10.0,NE,6.9,-,N/A,,Partly Cloudy,50,2013-03-31 15:53:00
11:53 AM,59.0,46.0,62,29.97,10.0,ENE,9.2,-,N/A,,Clear,60,2013-03-31 16:53:00
12:53 PM,62.1,44.1,52,29.97,10.0,NNE,9.2,-,N/A,,Clear,30,2013-03-31 17:53:00
1:53 PM,64.9,45.0,48,29.96,10.0,North,5.8,-,N/A,,Partly Cloudy,360,2013-03-31 18:53:00
2:53 PM,64.9,45.0,48,29.94,10.0,NNW,3.5,-,N/A,,Partly Cloudy,340,2013-03-31 19:53:00
3:53 PM,66.0,43.0,43,29.93,10.0,NNW,5.8,-,N/A,,Clear,340,2013-03-31 20:53:00
4:53 PM,66.9,46.0,47,29.92,10.0,NNW,5.8,-,N/A,,Clear,340,2013-03-31 21:53:00
5:53 PM,66.0,43.0,43,29.92,10.0,NW,6.9,-,N/A,,Clear,310,2013-03-31 22:53:00
6:53 PM,64.0,39.9,41,29.92,10.0,NNW,4.6,-,N/A,,Clear,330,2013-03-31 23:53:00
7:53 PM,57.9,39.9,51,29.94,10.0,NW,6.9,-,N/A,,Clear,310,2013-04-01 00:53:00
8:53 PM,55.9,41.0,57,29.96,10.0,Calm,Calm,-,N/A,,Clear,0,2013-04-01 01:53:00
9:53 PM,50.0,43.0,77,29.98,10.0,Calm,Calm,-,N/A,,Clear,0,2013-04-01 02:53:00
10:53 PM,46.0,42.1,86,30.00,10.0,Calm,Calm,-,N/A,,Clear,0,2013-04-01 03:53:00
11:53 PM,44.1,42.1,93,30.00,10.0,Calm,Calm,-,N/A,,Clear,0,2013-04-01 04:53:00